Regional Weather Roundup
Issued by NWS

Home | Current Version | Previous Version | Graphics & Text | Print | Product List | Glossary On
Versions: 1 2 3 4 5 6 7 8 9 10 11 12 13 14 15 16 17 18 19 20 21 22 23 24 25 26 27 28 29 30 31 32 33 34 35 36 37 38 39 40 41 42 43 44 45 46 47 48 49 50
736
ASUS43 KMPX 070701
RWRMN
WEATHER ROUNDUP FOR MINNESOTA
NATIONAL WEATHER SERVICE TWIN CITIES/CHANHASSEN MN
100 AM CST SUN FEB 07 2016


NOTE: "FAIR" INDICATES FEW OR NO CLOUDS BELOW 12,000 FEET WITH NO
SIGNIFICANT WEATHER AND/OR OBSTRUCTIONS TO VISIBILITY. N/A MEANS
CURRENT SKY AND/OR WEATHER CONDITIONS ARE NOT AVAILABLE.

MNZ060>063-068>070-070800-
   Twin Cities Metro

CITY           SKY/WX    TMP DP  RH WIND       PRES   REMARKS
TWIN CITIES    MOCLDY    34  27  75 SW10      29.70F WCI  26
ST PAUL        PTCLDY    33  27  78 S3        29.72F
CRYSTAL        CLOUDY    34  28  79 S9        29.68F WCI  27
BLAINE         CLOUDY    36  30  80 S7        29.69S
LAKEVILLE      PTCLDY    32  28  86 SW5       29.72R WCI  27
EDEN PRAIRIE   PTCLDY    33  27  78 SW13      29.70F WCI  24
SOUTH ST PAUL  MOCLDY    34  28  79 SW5       29.71S WCI  30
LAKE ELMO      FAIR      32  30  93 S9        29.71S WCI  24
$$
MNZ001>005-007-008-013>017-022>024-027-028-070800-
   Northwest Minnesota

CITY           SKY/WX    TMP DP  RH WIND       PRES   REMARKS
BEMIDJI        CLOUDY    36  32  86 SW8       29.47F
HALLOCK        CLOUDY    36  34  93 W12       29.40S
ROSEAU         MOCLDY    37  30  75 SW12      29.39S
WARROAD        CLOUDY    37  34  87 SW10      29.39R
THIEF RVR FALL CLOUDY    37  30  75 SW14      29.45S
CROOKSTON      CLOUDY    36  34  93 W16       29.47F
FOSSTON        DRIZZLE   34  30  86 SW13      29.47F WCI  25
DETROIT LAKES  DRIZZLE   36  32  87 W16G22    29.54F
MOORHEAD       CLOUDY    37  34  87 W24G30    29.55F
PARK RAPIDS    MOCLDY    36  31  82 SW10      29.51F
MAHNOMEN       DRIZZLE   35  32  87 SW14      29.50F WCI  26
$$
MNZ006-009>011-018-025>026-070800-
   North Central Minnesota

CITY           SKY/WX    TMP DP  RH WIND       PRES   REMARKS
BAUDETTE       CLOUDY    36  30  79 SW9       29.38F
FLAG ISLAND    CLOUDY    32  28  86 SE10      29.36F WCI  24
INTL FALLS     CLOUDY    32  30  92 VRB5      29.43F WCI  27
WASKISH        CLOUDY    37  34  87 SW8G17    29.42F
LONGVILLE      CLOUDY    36  34  93 S6        29.52F
GRAND RAPIDS   CLOUDY    34  30  86 S10       29.53F WCI  26
CRANE LAKE     CLOUDY    30  30 100 S5        29.50F WCI  25
ORR            CLOUDY    32  28  86 S9        29.45F WCI  24
COOK           CLOUDY    32  30  93 S8        29.50F WCI  25
WALKER         CLOUDY    34  32  92 SW9       29.50F WCI  27
$$
MNZ012-019>021-037-070800-
   Northeast Minnesota

CITY           SKY/WX    TMP DP  RH WIND       PRES   REMARKS
DULUTH         FRZ DRZL  32  29  88 SW14      29.56F WCI  22
ELY            LGT SNOW  30  28  93 S8        29.52F WCI  23
HIBBING        CLOUDY    31  30  96 VRB5      29.52F WCI  26
EVELETH        CLOUDY    32  32 100 S8        29.54F WCI  25
DULUTH HARBOR  CLOUDY    34  30  86 SW12      29.61F WCI  25
TWO HARBORS    CLOUDY    34  28  80 SW12      29.58F HAZE    WCI  25
SILVER BAY     LGT SNOW  32  30  93 S7        29.57F WCI  26
GRAND MARAIS     N/A     33  31  92 S14       29.62F WCI  23
G MARAIS ARPRT LGT SNOW  27  25  93 S7        29.56F WCI  19
$$
MNZ029>031-032-039>041-046>048-054>057-064-070800-
   West Central Minnesota

CITY           SKY/WX    TMP DP  RH WIND       PRES   REMARKS
FERGUS FALLS   CLOUDY    36  32  87 W15       29.62F
WHEATON        MOCLDY    39  34  81 W18G26    29.66S
MORRIS         CLEAR     37  30  75 W24       29.64S
ALEXANDRIA     CLEAR     35  31  85 SW16      29.61F WCI  25
ELBOW LAKE     CLOUDY    35  31  86 SW12      29.62S FOG     WCI  26
WADENA         CLEAR     34  30  86 SW10      29.55F WCI  26
GLENWOOD       CLEAR     34  30  86 SW15      29.63R WCI  24
APPLETON       CLEAR     39  28  65 W21       29.68S
BENSON         CLEAR     34  28  80 W12       29.67R WCI  25
ORTONVILLE     CLEAR     39  28  65 W14G22    29.68S
MADISON        CLEAR     39  28  65 W17       29.70S
WILLMAR        FAIR      34  32  93 SW9       29.68F WCI  26
$$
MNZ033>034-036-042>043-049>051-058-059-070800-
   Central Minnesota

CITY           SKY/WX    TMP DP  RH WIND       PRES   REMARKS
ST CLOUD       LGT RAIN  34  30  85 W10       29.66F WCI  26
SAUK CENTRE    FAIR      33  32  96 S10       29.61F WCI  25
PAYNESVILLE    CLOUDY    34  31  89 S6        29.65F WCI  29
AITKIN         CLOUDY    36  28  75 S7        29.56F
PINE RIVER     MOCLDY    34  30  86 S7        29.58F WCI  28
BRAINERD       MOCLDY    34  30  85 S9        29.57F WCI  27
STAPLES        PTCLDY    32  28  86 SW5       29.56F WCI  27
LONG PRAIRIE   MOCLDY    34  32  93 S8        29.59F WCI  27
LITTLE FALLS   CLOUDY    37  32  81 CALM      29.58F
LITCHFIELD     PTCLDY    34  30  86 CALM      29.68S
BUFFALO        CLOUDY    33  28  83 SW3       29.69S
MAPLE LAKE     CLOUDY    34  31  88 W3        29.69R
$$
MNZ037-044-045-052-053-070800-
   East Central Minnesota

CITY           SKY/WX    TMP DP  RH WIND       PRES   REMARKS
PRINCETON      DRIZZLE   34  28  80 SW5       29.67F WCI  30
MORA           CLOUDY    32  28  86 SW8       29.67S WCI  25
CAMBRIDGE      CLOUDY    36  27  69 CALM      29.66R
RUSH CITY      CLOUDY    33  29  85 S6        29.66F WCI  27
MOOSE LAKE     CLOUDY    32  30  93 S8        29.59F WCI  25
HINCKLEY       FAIR      32  32 100 S10       29.64F WCI  24
CLOQUET        MIX PCPN  34  30  86 S10       29.58F WCI  26
MCGREGOR       PTCLDY    32  30  93 S10       29.59S WCI  24
$$
MNZ071>073-080-081-089-090-097-098-070800-
   Southwest Minnesota

CITY           SKY/WX    TMP DP  RH WIND       PRES   REMARKS
MONTEVIDEO     CLEAR     39  30  70 NW17G25   29.70S
GRANITE FALLS  CLEAR     38  31  76 W20       29.71S
CANBY          CLEAR     41  31  68 NW16      29.74R
MARSHALL       CLEAR     37  28  70 W21       29.72S
REDWOOD FALLS  PTCLDY    35  28  75 SW14      29.69F WCI  26
OLIVIA         PTCLDY    34  30  86 SW9       29.68F WCI  26
PIPESTONE        N/A     37  23  56 W10       29.77S
WINDOM         CLOUDY    36  28  75 SW13      29.74S
WORTHINGTON    CLOUDY    32  25  74 W15       29.78F WCI  22
JACKSON        CLOUDY    34  28  80 W18       29.76S WCI  23
TRACY          PTCLDY    37  30  75 W16       29.73S
SLAYTON        PTCLDY    35  30  83 W17       29.75F WCI  24
$$
MNZ065>067-074>077-082>085-091>093-070800-
   South Central Minnesota

CITY           SKY/WX    TMP DP  RH WIND       PRES   REMARKS
MANKATO        MOCLDY    34  27  75 SW12      29.73R WCI  25
NEW ULM        CLOUDY    34  28  80 SW8       29.70F WCI  27
ST JAMES       CLOUDY    36  30  80 SW13      29.74F
FAIRMONT       CLOUDY    34  27  75 SW12      29.73F WCI  25
GLENCOE        MOCLDY    33  31  92 S6        29.68F WCI  27
FARIBAULT        N/A     34  28  80 SW15      29.75R WCI  24
OWATONNA       PTCLDY    32  27  80 S20       29.73S WCI  20
WASECA         PTCLDY    32  28  86 SW20      29.76R WCI  20
ALBERT LEA     CLOUDY    34  28  80 SW13G20   29.74F WCI  25
$$
MNZ078>079-086>088-094>096-070800-
   Southeast Minnesota

CITY           SKY/WX    TMP DP  RH WIND       PRES   REMARKS
ROCHESTER      CLOUDY    32  28  85 S24       29.72F WCI  19
RED WING       CLOUDY    36  27  69 S6        29.71S
STANTON        PTCLDY    34  28  78 SW16      29.71R WCI  24
DODGE CENTER   CLOUDY    30  28  93 SW22G29   29.71F WCI  17
WINONA         CLOUDY    36  30  80 S6        29.78F
AUSTIN         MOCLDY    32  28  86 S16       29.74F WCI  21
PRESTON        CLOUDY    32  28  86 SW15G24   29.78F WCI  22
$$
ABBREVIATIONS USED IN REMARKS
   TC - TEMPERATURES IN CELSIUS
  WCI - WIND CHILL INDEX
   HX - HEAT INDEX
  VSB - VISIBILITY
$$




USA.gov is the U.S. government's official web portal to all federal, state and local government web resources and services.